sat.trackr.live / text

‹ back to catalog

STARLINK-33615

NORAD 63426 · 2025-065AD

PAYLOAD ACTIVE UNKNOWN

§ Identity

Operator
Country
US
Launch date
2025-03-31
Launch site
AFETR
Launch vehicle
Mass (kg)
RCS (m²)

Purposes: comms

External: N2YO · Heavens-Above · Gunter

§ Orbital elements

Epoch: 2026-05-24T23:31:53.091840Z

Period
94.27 min
Inclination
43.0001°
Eccentricity
0.0000823
Mean motion
15.27596520 rev/d
Perigee alt
482.4 km
Apogee alt
483.6 km
Semi-major
6,861.1 km
B*
5.7032e-4
RAAN
36.5124°
Arg perigee
253.0264°
Mean anomaly
107.0498°
Rev number
6,450

§ Raw data

STARLINK-336151 63426U 25065AD  26144.98047560  .00015473  00000+0  57032-3 0  99942 63426  43.0001  36.5124 0000823 253.0264 107.0498 15.27596520 64503

JSON: /api/v1/satellites/63426 · /tle

For live sub-satellite position, see the globe view (requires WebGL).

§ Visibility from observer

Set your observer location to see the next 7 days of passes ≥ 10°. The values pass through the URL so the page stays shareable.

No JS? Fill the form by hand. The geolocation button needs JavaScript.